Simultaneous Nadir Overpasses (SNOs) Predictions

Prediction of SNOs between AQUA and NPP Satellite Orbit:

Table of predicted SNOs for the next 14.0 days since TLE Epoch: 11/23/2024
Index Date (AQUA) Time (AQUA) Lat,Lon (AQUA) SZA (AQUA ) Date (NPP) Time (NPP) Lat,Lon (NPP) SZA (NPP ) Distance(km) Time Diff (sec)
1 11/24/2024 20:53:38 -81.30, -24.97 72.67 11/24/2024 20:53:30 -81.30, -25.16 72.64 3.23 8
2 11/27/2024 07:16:07 81.30, -0.57 107.81 11/27/2024 07:15:17 81.30, -0.42 107.82 2.60 50
3 11/27/2024 08:05:28 -81.29, 166.90 72.17 11/27/2024 08:06:02 -81.30, 166.84 72.18 1.16 34
4 11/29/2024 18:27:54 81.30,-168.38 108.24 11/29/2024 18:27:49 81.30,-168.53 108.26 2.67 5
5 12/02/2024 04:50:20 -81.30,-143.97 71.37 12/02/2024 04:49:36 -81.30,-144.06 71.33 1.71 44
6 12/02/2024 05:39:39 81.31, 23.75 108.63 12/02/2024 05:40:20 81.30, 23.67 108.62 1.47 41
7 12/04/2024 16:02:02 -81.30, 48.11 71.01 12/04/2024 16:02:06 -81.30, 48.09 71.01 0.38 4
8 12/07/2024 02:24:22 81.31, 72.69 109.30 12/07/2024 02:23:52 81.30, 72.78 109.30 1.78 30



Historial Predications of SNOs between AQUA and NPP
